Regional Weather Roundup
Issued by NWS San Diego, CA

Home | Current Version | Previous Version | Text Only | Print | Product List | Glossary On
Versions: 1 2 3 4 5 6 7 8 9 10 11 12 13 14 15 16 17 18 19 20 21 22 23 24 25 26 27 28 29 30 31 32 33 34 35 36 37 38 39 40 41 42 43 44 45 46 47 48 49
000
ASUS46 KSGX 011911
RWRSGX

SAN DIEGO HOURLY WEATHER ROUNDUP
NATIONAL WEATHER SERVICE SAN DIEGO CA
1100 AM PST SUN MAR 01 2015

NOTE: "FAIR" INDICATES FEW OR NO CLOUDS BELOW 12,000 FEET WITH NO
SIGNIFICANT WEATHER AND/OR OBSTRUCTIONS TO VISIBILITY.

CAZ042-043-060-061-PZZ750-775-012000-

GREATER SAN DIEGO AREA

CITY           SKY/WX    TMP DP  RH WIND       PRES   REMARKS
LINDBERGH FLD  LGT RAIN  56  49  77 E14G21    29.94F
NATIONAL CITY    N/A     55  53  92 E3        29.95F
CHULA VISTA      N/A     54  53  96 E3        29.88F
IMPERIAL BEACH LGT RAIN  56  52  86 E12       29.95F
BROWN FIELD    LGT RAIN  54  50  86 NE8       29.96F
MIRAMAR MCAS   CLOUDY    55  49  80 E20       29.92F
MONTGOMERY FLD LGT RAIN  54  49  83 E13       29.93F

$$

NORTH SAN DIEGO COUNTY

CITY           SKY/WX    TMP DP  RH WIND       PRES   REMARKS
CAMP PENDLETON LGT RAIN  56  48  74 NE10      29.94F
OCEANSIDE AP   LGT RAIN  57  49  74 E13       29.92F
OCEANSIDE HBR    N/A     57  51  79 NE6       29.95F
VISTA            N/A     51  46  83 CALM      29.94R
CARLSBAD       LGT RAIN  55  48  77 E12G17    29.92F
DEL MAR          N/A     54  52  94 CALM      29.95F
LA JOLLA SCRIP   N/A     56   2  11 CALM      29.90F
FALLBROOK        N/A     51  51 100 E5        29.97S
ESCONDIDO        N/A     52  49  90 E6        29.97F
SAN MARCOS       N/A     52  49  88 CALM      29.94S

$$

EAST SAN DIEGO COUNTY

CITY           SKY/WX    TMP DP  RH WIND       PRES   REMARKS
RAMONA         LGT RAIN  49  45  86 E15       29.96F FOG
SANTEE LAKES     N/A     52  51  93 NE2       29.97F
LA MESA          N/A     52  50  92 NE10      29.91F
JAMUL            N/A     50  49  95 NW5       29.97F
DESCANSO N       N/A     43  40  91 CALM      29.90S
MT. LAGUNA OBS   N/A     33  33 100 CALM      29.54S
CAMPO            N/A     47  44  90 NW6       29.92R

$$

ORANGE COUNTY AND THE LOS ANGELES BASIN

CITY           SKY/WX    TMP DP  RH WIND       PRES   REMARKS
JOHN WAYNE AP  CLOUDY    61  47  59 E8        29.93F
LAGUNA BEACH     N/A     57  53  86 NW2       29.88F
LAKE FOREST FR   N/A     54  46  74 CALM      29.86S
SANTA ANA        N/A     59  53  79 CALM      29.89F
LOS ALAMITOS   PTSUNNY   60  50  70 S7        29.93F
FULLERTON      CLOUDY    61  47  59 E5        29.92F
LONG BEACH     CLOUDY    61  47  59 E6        29.93F
L.A. AP        PTSUNNY   61  47  59 NE9       29.93F
L.A. DOWNTOWN  CLOUDY    60  46  59 E7        29.93F

$$

THE INLAND EMPIRE

CITY           SKY/WX    TMP DP  RH WIND       PRES   REMARKS
CORONA         CLOUDY    54  45  71 E9G16     29.97R
CHINO          CLOUDY    56  47  71 E10       29.98R
ONTARIO        CLOUDY    54  45  71 SE8       29.95S
SAN BERNARDINO CLOUDY    54  46  76 SE3       29.96F
RIVERSIDE AP   LGT RAIN  54  47  77 SE6       29.97R
RIV CYN CREST    N/A     53  53  98 S8          N/A
MORENO VALLEY    N/A     49  48  96 SE7       29.15F
MARCH ARB      LGT RAIN  50  46  87 SE10      29.97R
HORSETHIEF CYN   N/A     49  44  81 SE7       29.96R
PERRIS           N/A     50  46  86 SE7         N/A
MENIFEE          N/A     52  46  82 SE6       30.07R
HEMET EAST       N/A     46  41  85 CALM      30.00S
FRENCH VALLEY  CLOUDY    48  43  81 E12       29.96R
TEMECULA         N/A     49  49  97 CALM      29.93S

$$

SAN BERNARDINO AND RIVERSIDE COUNTY MOUNTAINS

CITY           SKY/WX    TMP DP  RH WIND       PRES   REMARKS
BIG BEAR AP    LGT SNOW  32  27  80 W8G17     29.94R WCI  25
ANGELUS OAKS     N/A     34  31  88 CALM      29.97R
PINE COVE        N/A     32  33 100 CALM      30.04S

$$

SOUTHERN DESERT INCLUDING THE COACHELLA VALLEY

CITY           SKY/WX    TMP DP  RH WIND       PRES   REMARKS
PALM SPRINGS   LGT RAIN  54  48  80 S5        30.02R
THOUSAND PALMS   N/A     55  49  80 W2        30.00R
PALM DESERT      N/A     55  51  86 CALM      27.39S
THERMAL        LGT RAIN  56  49  77 W6        30.00R
BLYTHE         LGT RAIN  56  52  86 W6        29.99S
IMPERIAL AP    LGT RAIN  55  52  89 NW5       30.00R FOG
EL CENTRO NAS  LGT RAIN  55  50  83 NW5       30.00S
YUMA AZ        CLOUDY    63  47  55 NW12      29.95S
MEXICALI       CLOUDY    55  50  82 NW9       29.98

$$

UPPER DESERT

CITY           SKY/WX    TMP DP  RH WIND       PRES   REMARKS
VICTORVILLE AP CLOUDY    46  36  66 CALM      29.95R
HESPERIA         N/A     47  39  74 SW2       30.12S
APPLE VALLEY     N/A     49  35  56 CALM      30.02R
PALMDALE       CLOUDY    49  39  68 VRB3      29.95F
LANCASTER      CLOUDY    49  39  68 NE5       29.97S
EDWARDS AFB    CLOUDY    50  38  63 VRB3      29.94F
DAGGETT        CLOUDY    53  35  50 N6        29.97R
29 PALMS N     LGT RAIN  50  41  71 SE13      30.04S
NEEDLES        CLOUDY    63  37  38 CALM      29.98R

$$

REGIONAL REPORTS

CITY           SKY/WX    TMP DP  RH WIND       PRES   REMARKS
SANTA BARBARA  MOSUNNY   60  46  59 S7        29.94R
SANDBERG       CLOUDY    41  35  79 E16G23    29.92F
MT. WILSON       N/A     36  36 100 E2          N/A
LAS VEGAS NV   CLOUDY    54  33  45 CALM      29.96S
PHOENIX AZ     PTSUNNY   69  49  48 S10       29.96F
TIJUANA        RAIN      54  48  82 N9        29.99S
ENSENADA NW      N/A     56  32  40 W7        29.94R

$$

OFFSHORE ISLANDS

CITY           SKY/WX    TMP DP  RH WIND       PRES   REMARKS
CATALINA ARPT  PTSUNNY   50  47  89 E9        29.93F
SAN NICOLAS IS CLOUDY   N/A N/A N/A NW5G18    29.93F

$$

MARINE AND OFFSHORE BUOY REPORTS

STATION/POSITION SKY/WX   TEMP    WIND        PRES    SWELL
                          AIR SEA DIR/SP/G            HT/PER/DIR
                          (F)     (DEG/KT/KT) (MB)    (FT/S/D)
TANNER BANKS               59 62   60/  2/  2 1014.0R   5/310/ 9
S CLEMENTE BASIN           57 62  180/  8/ 10 1014.2R   3/290/ 8
SAN NICOLAS IS.               60                N/A     3/290/11
SO. S. ROSA ISLA           57 60  130/  4/  6 1013.4R   7/11
W. S. BARBARA CH           56 60  110/  8/ 10 1013.7R   7/320/10
S. MONICA BASIN            57 62   90/ 10/ 12 1014.1R   2/250/14
S PEDRO CHANNEL               61                N/A     2/270/14
DANA POINT                    61                N/A     2/200/13
CMP PENDLETON NS              62                N/A     2/240/14
OCEANSIDE OFFSHR              62                N/A     2/260/14
TORREY PINES OTR              62                N/A     2/230/13
LA JOLLA 1                    62  100/ 14/ 21 1014.0F
MISSION BAY BUOY              62                N/A     2/240/13
SAN DIEGO BAY                 65              1015.1F
POINT LOMA SOUTH              63                N/A     2/240/13

$$




USA.gov is the U.S. government's official web portal to all federal, state and local government web resources and services.